TimeEST,TemperatureF,Dew PointF,Humidity,Sea Level PressureIn,VisibilityMPH,Wind Direction,Wind SpeedMPH,Gust SpeedMPH,PrecipitationIn,Events,Conditions,WindDirDegrees,DateUTC
12:52 AM,33.1,30.9,92,29.89,10.0,NNW,5.8,-,0.00,,Overcast,330,2013-02-24 05:52:00
1:52 AM,33.1,30.9,92,29.87,10.0,NNW,4.6,-,0.02,Rain,Light Rain,340,2013-02-24 06:52:00
2:52 AM,33.1,30.9,92,29.84,6.0,North,3.5,-,0.01,Rain,Light Rain,350,2013-02-24 07:52:00
3:05 AM,33.8,32.0,93,29.82,7.0,NNW,3.5,-,0.01,Rain,Light Rain,330,2013-02-24 08:05:00
3:52 AM,33.1,32.0,96,29.83,10.0,NNW,4.6,-,0.01,,Overcast,330,2013-02-24 08:52:00
4:52 AM,33.1,32.0,96,29.82,10.0,NNW,6.9,-,N/A,,Overcast,330,2013-02-24 09:52:00
5:52 AM,33.1,32.0,96,29.81,10.0,NNW,4.6,-,N/A,,Overcast,340,2013-02-24 10:52:00
6:30 AM,33.8,32.0,93,29.80,1.8,NNE,4.6,-,0.02,Snow,Light Snow,20,2013-02-24 11:30:00
6:37 AM,33.8,32.0,93,29.79,1.0,North,3.5,-,0.03,Snow,Light Snow,360,2013-02-24 11:37:00
6:52 AM,33.1,32.0,96,29.80,0.5,North,5.8,-,0.06,Fog-Snow,Snow,350,2013-02-24 11:52:00
7:09 AM,33.8,32.0,93,29.78,1.0,NNW,5.8,-,0.02,Snow,Light Snow,330,2013-02-24 12:09:00
7:17 AM,33.8,32.0,93,29.77,1.5,NNW,6.9,-,0.02,Snow,Light Snow,330,2013-02-24 12:17:00
7:27 AM,33.8,32.0,93,29.78,3.0,NNW,6.9,-,0.02,Snow,Light Snow,330,2013-02-24 12:27:00
7:52 AM,33.1,32.0,96,29.79,10.0,NNW,9.2,-,0.02,,Overcast,330,2013-02-24 12:52:00
8:52 AM,34.0,32.0,92,29.78,3.0,North,8.1,-,0.01,Snow,Light Snow,360,2013-02-24 13:52:00
9:03 AM,33.8,32.0,93,29.76,3.0,North,6.9,-,0.01,Snow,Light Snow,350,2013-02-24 14:03:00
9:40 AM,33.8,32.0,93,29.76,3.0,North,6.9,-,0.01,Snow,Light Snow,350,2013-02-24 14:40:00
9:52 AM,34.0,32.0,92,29.78,3.0,North,8.1,-,0.02,Snow,Light Snow,350,2013-02-24 14:52:00
10:07 AM,33.8,32.0,93,29.75,2.5,North,9.2,-,0.00,Snow,Light Snow,350,2013-02-24 15:07:00
10:20 AM,33.8,32.0,93,29.75,4.0,North,9.2,-,0.00,Snow,Light Snow,350,2013-02-24 15:20:00
10:52 AM,34.0,32.0,92,29.77,10.0,North,9.2,-,0.00,,Overcast,360,2013-02-24 15:52:00
11:26 AM,33.8,32.0,93,29.74,2.0,North,9.2,-,0.01,Snow,Light Snow,350,2013-02-24 16:26:00
11:34 AM,33.8,30.2,87,29.74,1.5,North,8.1,-,0.01,Snow,Light Snow,360,2013-02-24 16:34:00
11:52 AM,34.0,30.9,89,29.76,2.0,North,9.2,-,0.01,Snow,Light Snow,350,2013-02-24 16:52:00
11:59 AM,33.8,30.2,87,29.74,3.0,North,8.1,-,0.00,Snow,Light Snow,350,2013-02-24 16:59:00
12:08 PM,33.8,32.0,93,29.74,5.0,NNW,9.2,-,0.00,Snow,Light Snow,330,2013-02-24 17:08:00
12:17 PM,33.8,32.0,93,29.74,1.8,NW,9.2,-,0.01,Snow,Light Snow,320,2013-02-24 17:17:00
12:20 PM,33.8,32.0,93,29.74,1.0,NNW,12.7,-,0.01,Snow,Light Snow,340,2013-02-24 17:20:00
12:31 PM,33.8,30.2,87,29.74,1.5,NNW,5.8,-,0.01,Snow,Light Snow,330,2013-02-24 17:31:00
12:39 PM,33.8,32.0,93,29.74,3.0,NNW,5.8,-,0.01,Snow,Light Snow,340,2013-02-24 17:39:00
12:52 PM,34.0,30.9,89,29.75,5.0,North,5.8,-,0.03,Snow,Light Snow,360,2013-02-24 17:52:00
12:59 PM,33.8,32.0,93,29.73,2.5,North,6.9,-,0.00,Snow,Light Snow,350,2013-02-24 17:59:00
1:14 PM,33.8,30.2,87,29.73,1.2,NNW,5.8,-,0.01,Snow,Light Snow,340,2013-02-24 18:14:00
1:18 PM,33.8,32.0,93,29.73,0.8,North,3.5,-,0.01,Snow,Light Snow,350,2013-02-24 18:18:00
1:25 PM,33.8,32.0,93,29.72,0.8,North,4.6,-,0.02,Snow,Light Snow,350,2013-02-24 18:25:00
1:35 PM,33.8,32.0,93,29.72,1.2,NNW,3.5,-,0.03,Snow,Light Snow,340,2013-02-24 18:35:00
1:43 PM,33.8,32.0,93,29.73,1.8,NW,5.8,-,0.03,Snow,Light Snow,320,2013-02-24 18:43:00
1:48 PM,33.8,32.0,93,29.73,2.0,NW,4.6,-,0.03,Snow,Light Snow,320,2013-02-24 18:48:00
1:52 PM,34.0,32.0,92,29.75,2.5,NNW,3.5,-,0.03,Snow,Light Snow,340,2013-02-24 18:52:00
2:00 PM,33.8,33.8,100,29.72,3.0,NNW,3.5,-,0.01,Snow,Light Snow,330,2013-02-24 19:00:00
2:37 PM,35.6,33.8,93,29.73,4.0,North,8.1,-,0.02,Rain,Light Rain,350,2013-02-24 19:37:00
2:52 PM,35.1,32.0,89,29.75,5.0,NNE,5.8,-,0.02,Rain,Light Rain,20,2013-02-24 19:52:00
3:19 PM,35.6,33.8,93,29.73,4.0,North,5.8,-,0.00,,Overcast,360,2013-02-24 20:19:00
3:45 PM,35.6,33.8,93,29.73,6.0,North,4.6,-,0.00,,Overcast,10,2013-02-24 20:45:00
3:52 PM,35.1,33.1,92,29.75,7.0,North,4.6,-,0.00,,Overcast,10,2013-02-24 20:52:00
3:59 PM,35.6,33.8,93,29.74,10.0,NNW,3.5,-,N/A,,Overcast,340,2013-02-24 20:59:00
4:07 PM,35.6,33.8,93,29.74,10.0,North,4.6,-,N/A,,Overcast,350,2013-02-24 21:07:00
4:52 PM,35.1,33.1,92,29.77,9.0,NE,4.6,-,0.01,,Overcast,40,2013-02-24 21:52:00
5:21 PM,33.8,32.0,93,29.76,4.0,NE,3.5,-,0.00,Snow,Light Snow,40,2013-02-24 22:21:00
5:35 PM,33.8,32.0,93,29.77,2.5,NE,4.6,-,0.00,Snow,Light Snow,40,2013-02-24 22:35:00
5:42 PM,33.8,30.2,87,29.77,3.0,NE,3.5,-,0.00,Snow,Light Snow,40,2013-02-24 22:42:00
5:52 PM,33.1,32.0,96,29.79,3.0,Calm,Calm,-,0.00,Snow,Light Snow,0,2013-02-24 22:52:00
6:05 PM,33.8,32.0,93,29.78,4.0,Calm,Calm,-,0.00,Snow,Light Snow,0,2013-02-24 23:05:00
6:22 PM,33.8,32.0,93,29.79,7.0,Calm,Calm,-,0.00,Snow,Light Snow,0,2013-02-24 23:22:00
6:32 PM,32.0,32.0,100,29.80,6.0,Calm,Calm,-,0.00,Snow,Light Snow,0,2013-02-24 23:32:00
6:52 PM,33.1,32.0,96,29.83,3.0,Calm,Calm,-,0.01,Snow,Light Snow,0,2013-02-24 23:52:00
6:56 PM,32.0,30.2,93,29.81,2.5,ENE,3.5,-,0.00,Snow,Light Snow,70,2013-02-24 23:56:00
7:06 PM,33.8,32.0,93,29.81,3.0,Calm,Calm,-,0.00,Snow,Light Snow,0,2013-02-25 00:06:00
7:09 PM,33.8,32.0,93,29.81,4.0,Calm,Calm,-,0.00,Snow,Light Snow,0,2013-02-25 00:09:00
7:15 PM,33.8,32.0,93,29.82,2.5,Calm,Calm,-,0.00,Snow,Light Snow,0,2013-02-25 00:15:00
7:25 PM,33.8,32.0,93,29.82,1.5,Calm,Calm,-,0.00,Snow,Light Snow,0,2013-02-25 00:25:00
7:46 PM,32.0,30.2,93,29.83,1.0,Calm,Calm,-,0.01,Snow,Light Snow,0,2013-02-25 00:46:00
7:47 PM,32.0,30.9,96,29.85,1.0,Calm,Calm,-,0.01,Snow,Light Snow,0,2013-02-25 00:47:00
8:06 PM,32.0,32.0,100,29.84,1.2,Calm,Calm,-,0.01,Snow,Light Snow,0,2013-02-25 01:06:00
8:35 PM,32.0,30.2,93,29.85,1.0,Calm,Calm,-,0.03,Snow,Light Snow,0,2013-02-25 01:35:00
8:52 PM,33.1,32.0,96,29.87,1.2,West,3.5,-,0.04,Snow,Light Snow,260,2013-02-25 01:52:00
8:57 PM,33.8,30.2,87,29.85,2.0,NW,5.8,-,0.01,Snow,Light Snow,310,2013-02-25 01:57:00
9:07 PM,33.8,30.2,87,29.85,2.0,NW,6.9,-,0.01,Snow,Light Snow,320,2013-02-25 02:07:00
9:14 PM,33.8,30.2,87,29.85,2.0,NW,8.1,-,0.01,Snow,Light Snow,320,2013-02-25 02:14:00
9:20 PM,33.8,30.2,87,29.86,1.8,NW,10.4,-,0.01,Snow,Light Snow,320,2013-02-25 02:20:00
9:41 PM,33.8,30.2,87,29.86,2.0,NW,6.9,-,0.01,Snow,Light Snow,320,2013-02-25 02:41:00
9:52 PM,33.1,30.9,92,29.88,2.5,NNW,6.9,-,0.02,Snow,Light Snow,330,2013-02-25 02:52:00
10:04 PM,32.0,30.2,93,29.86,2.0,NNW,4.6,-,0.00,Snow,Light Snow,330,2013-02-25 03:04:00
10:20 PM,32.0,30.2,93,29.86,2.5,NNW,8.1,-,0.00,Snow,Light Snow,330,2013-02-25 03:20:00
10:37 PM,32.0,30.2,93,29.87,3.0,NNW,6.9,-,0.00,Snow,Light Snow,330,2013-02-25 03:37:00
10:52 PM,32.0,30.0,92,29.89,4.0,NW,8.1,-,0.00,Snow,Light Snow,320,2013-02-25 03:52:00
11:35 PM,32.0,30.2,93,29.89,10.0,NW,5.8,-,0.00,,Overcast,320,2013-02-25 04:35:00
11:52 PM,32.0,28.9,88,29.91,10.0,NNW,6.9,-,0.00,,Overcast,340,2013-02-25 04:52:00